• In Hungary
  • List of Countries
  • For 7 days
  • Water Temperature
  • Satellite Maps
  • Weather Map
  • News
  • Weather Widgets
  • user-avatar
    Login

    Hourly Weather Nizhneangarsk

    Today, 21 September, Friday

    Time Temperature Precipitation Wind Pressure Humidity
    00:00 +1°C° 0 mm 4 mps 721 mmHg 88%
    01:00 +1°C° 0 mm 4 mps 721 mmHg 88%
    02:00 +1°C° 0 mm 4 mps 721 mmHg 88%
    03:00 +1°C° 0 mm 4 mps 721 mmHg 87%
    04:00 +1°C° 0 mm 4 mps 721 mmHg 87%
    05:00 +3°C° 0.1 mm 4 mps 721 mmHg 84%
    06:00 +3°C° 0.1 mm 4 mps 722 mmHg 82%
    07:00 +4°C° 0.1 mm 4 mps 722 mmHg 79%
    08:00 +5°C° 0.1 mm 4 mps 722 mmHg 75%
    09:00 +6°C° 0.1 mm 4 mps 722 mmHg 70%
    10:00 +7°C° 0.1 mm 4 mps 722 mmHg 66%
    11:00 +8°C° 0.1 mm 4 mps 722 mmHg 65%
    12:00 +9°C° 0.1 mm 3 mps 722 mmHg 64%
    13:00 +10°C° 0 mm 4 mps 722 mmHg 60%
    14:00 +10°C° 0.1 mm 4 mps 722 mmHg 61%
    15:00 +10°C° 0.1 mm 4 mps 722 mmHg 63%
    16:00 +10°C° 0.1 mm 3 mps 722 mmHg 64%
    17:00 +8°C° 0 mm 3 mps 723 mmHg 69%
    18:00 +7°C° 0 mm 3 mps 723 mmHg 74%
    19:00 +5°C° 0 mm 3 mps 723 mmHg 79%
    20:00 +4°C° 0 mm 3 mps 724 mmHg 80%
    21:00 +4°C° 0 mm 3 mps 724 mmHg 81%
    22:00 +3°C° 0 mm 3 mps 724 mmHg 82%
    23:00 +4°C° 0 mm 2 mps 725 mmHg 82%

    Tomorrow, 22 September, Saturday

    Time Temperature Precipitation Wind Pressure Humidity
    00:00 +4°C° 0 mm 2 mps 725 mmHg 82%
    01:00 +4°C° 0 mm 2 mps 725 mmHg 82%
    02:00 +4°C° 0 mm 2 mps 725 mmHg 82%
    03:00 +4°C° 0 mm 2 mps 725 mmHg 82%
    04:00 +5°C° 0 mm 1 mps 726 mmHg 82%
    05:00 +5°C° 0 mm 1 mps 726 mmHg 78%
    06:00 +6°C° 0 mm 1 mps 726 mmHg 75%
    07:00 +7°C° 0 mm 1 mps 726 mmHg 72%
    08:00 +8°C° 0 mm 1 mps 726 mmHg 67%
    09:00 +10°C° 0 mm 1 mps 726 mmHg 63%
    10:00 +11°C° 0 mm 1 mps 726 mmHg 58%
    11:00 +12°C° 0 mm 1 mps 726 mmHg 57%
    12:00 +12°C° 0 mm 1 mps 726 mmHg 55%
    13:00 +13°C° 0 mm 2 mps 725 mmHg 54%
    14:00 +13°C° 0 mm 2 mps 725 mmHg 56%
    15:00 +12°C° 0 mm 2 mps 725 mmHg 58%
    16:00 +12°C° 0 mm 2 mps 725 mmHg 59%
    17:00 +9°C° 0 mm 2 mps 725 mmHg 67%
    18:00 +8°C° 0 mm 1 mps 726 mmHg 74%
    19:00 +6°C° 0 mm 1 mps 726 mmHg 82%
    20:00 +6°C° 0 mm 1 mps 726 mmHg 82%
    21:00 +6°C° 0 mm 1 mps 726 mmHg 82%
    22:00 +6°C° 0 mm 1 mps 726 mmHg 82%
    23:00 +6°C° 0 mm 1 mps 726 mmHg 82%

    Day after tomorrow, 23 September, Sunday

    Time Temperature Precipitation Wind Pressure Humidity
    00:00 +5°C° 0 mm 1 mps 726 mmHg 83%
    01:00 +4°C° 0 mm 0 mps 726 mmHg 83%
    02:00 +4°C° 0 mm 0 mps 726 mmHg 83%
    03:00 +5°C° 0 mm 1 mps 726 mmHg 82%
    04:00 +5°C° 0 mm 1 mps 726 mmHg 82%
    05:00 +6°C° 0 mm 1 mps 726 mmHg 78%
    06:00 +6°C° 0 mm 0 mps 726 mmHg 73%
    07:00 +7°C° 0 mm 0 mps 726 mmHg 69%
    08:00 +9°C° 0 mm 1 mps 726 mmHg 64%
    09:00 +11°C° 0 mm 1 mps 725 mmHg 59%
    10:00 +12°C° 0 mm 1 mps 725 mmHg 53%
    11:00 +13°C° 0 mm 1 mps 724 mmHg 52%
    12:00 +13°C° 0 mm 1 mps 724 mmHg 50%
    13:00 +14°C° 0 mm 1 mps 723 mmHg 49%
    14:00 +13°C° 0 mm 1 mps 723 mmHg 51%
    15:00 +13°C° 0 mm 1 mps 723 mmHg 52%
    16:00 +12°C° 0 mm 1 mps 722 mmHg 54%
    17:00 +10°C° 0 mm 1 mps 723 mmHg 60%
    18:00 +9°C° 0 mm 1 mps 723 mmHg 66%
    19:00 +7°C° 0 mm 1 mps 723 mmHg 71%
    20:00 +7°C° 0 mm 1 mps 723 mmHg 70%
    21:00 +6°C° 0 mm 1 mps 723 mmHg 68%
    22:00 +6°C° 0 mm 1 mps 723 mmHg 66%
    23:00 +6°C° 0 mm 1 mps 723 mmHg 66%

    24 September, Monday

    Time Temperature Precipitation Wind Pressure Humidity
    00:00 +6°C° 0 mm 1 mps 723 mmHg 67%
    01:00 +6°C° 0 mm 1 mps 723 mmHg 67%
    02:00 +6°C° 0 mm 1 mps 722 mmHg 67%
    03:00 +6°C° 0 mm 1 mps 722 mmHg 67%
    04:00 +6°C° 0 mm 1 mps 722 mmHg 67%
    05:00 +7°C° 0 mm 1 mps 722 mmHg 64%
    06:00 +8°C° 0 mm 1 mps 722 mmHg 61%
    07:00 +9°C° 0 mm 1 mps 722 mmHg 58%
    08:00 +10°C° 0 mm 1 mps 721 mmHg 55%
    09:00 +12°C° 0 mm 1 mps 721 mmHg 51%
    10:00 +13°C° 0 mm 1 mps 720 mmHg 47%
    11:00 +14°C° 0 mm 1 mps 720 mmHg 47%
    12:00 +14°C° 0 mm 1 mps 720 mmHg 46%
    13:00 +15°C° 0 mm 1 mps 719 mmHg 46%
    14:00 +14°C° 0 mm 1 mps 719 mmHg 47%
    15:00 +14°C° 0 mm 1 mps 719 mmHg 49%
    16:00 +14°C° 0 mm 1 mps 719 mmHg 51%
    17:00 +12°C° 0 mm 1 mps 719 mmHg 57%
    18:00 +10°C° 0 mm 1 mps 719 mmHg 64%
    19:00 +8°C° 0 mm 1 mps 719 mmHg 70%
    20:00 +8°C° 0 mm 1 mps 719 mmHg 70%
    21:00 +7°C° 0 mm 1 mps 720 mmHg 70%
    22:00 +7°C° 0 mm 1 mps 720 mmHg 70%
    23:00 +7°C° 0 mm 1 mps 720 mmHg 70%

    25 September, Tuesday

    Time Temperature Precipitation Wind Pressure Humidity
    00:00 +7°C° 0 mm 1 mps 720 mmHg 70%
    01:00 +7°C° 0 mm 1 mps 719 mmHg 70%
    02:00 +7°C° 0 mm 1 mps 719 mmHg 70%
    03:00 +7°C° 0 mm 1 mps 719 mmHg 70%
    04:00 +6°C° 0 mm 1 mps 719 mmHg 70%
    05:00 +7°C° 0 mm 1 mps 719 mmHg 67%
    06:00 +8°C° 0 mm 1 mps 719 mmHg 64%
    07:00 +9°C° 0 mm 1 mps 719 mmHg 60%
    08:00 +11°C° 0 mm 1 mps 719 mmHg 56%
    09:00 +12°C° 0 mm 1 mps 718 mmHg 52%
    10:00 +14°C° 0 mm 1 mps 718 mmHg 48%
    11:00 +14°C° 0 mm 1 mps 718 mmHg 48%
    12:00 +15°C° 0 mm 1 mps 717 mmHg 48%
    13:00 +15°C° 0 mm 1 mps 717 mmHg 47%
    14:00 +15°C° 0 mm 1 mps 717 mmHg 49%
    15:00 +14°C° 0 mm 1 mps 717 mmHg 51%
    16:00 +14°C° 0 mm 1 mps 717 mmHg 52%
    17:00 +12°C° 0 mm 1 mps 717 mmHg 58%
    18:00 +10°C° 0 mm 1 mps 717 mmHg 64%
    19:00 +8°C° 0 mm 1 mps 717 mmHg 69%
    20:00 +8°C° 0 mm 1 mps 717 mmHg 68%
    21:00 +7°C° 0 mm 2 mps 717 mmHg 68%
    22:00 +7°C° 0 mm 2 mps 717 mmHg 67%
    23:00 +7°C° 0 mm 2 mps 717 mmHg 66%

    26 September, Wednesday

    Time Temperature Precipitation Wind Pressure Humidity
    00:00 +7°C° 0 mm 2 mps 717 mmHg 65%
    01:00 +7°C° 0 mm 2 mps 717 mmHg 64%
    02:00 +7°C° 0 mm 2 mps 717 mmHg 64%
    03:00 +7°C° 0 mm 2 mps 716 mmHg 63%
    04:00 +7°C° 0 mm 2 mps 716 mmHg 63%
    05:00 +8°C° 0 mm 2 mps 716 mmHg 62%
    06:00 +9°C° 0 mm 1 mps 716 mmHg 61%
    07:00 +10°C° 0 mm 1 mps 716 mmHg 60%
    08:00 +11°C° 0 mm 1 mps 716 mmHg 56%
    09:00 +12°C° 0 mm 1 mps 716 mmHg 52%
    10:00 +14°C° 0 mm 1 mps 716 mmHg 48%
    11:00 +14°C° 0 mm 1 mps 715 mmHg 47%
    12:00 +15°C° 0 mm 1 mps 715 mmHg 46%
    13:00 +15°C° 0 mm 1 mps 715 mmHg 45%
    14:00 +15°C° 0 mm 1 mps 715 mmHg 48%
    15:00 +14°C° 0 mm 1 mps 715 mmHg 50%
    16:00 +14°C° 0 mm 1 mps 715 mmHg 53%
    17:00 +12°C° 0 mm 1 mps 716 mmHg 59%
    18:00 +11°C° 0 mm 1 mps 716 mmHg 64%
    19:00 +9°C° 0 mm 0 mps 716 mmHg 70%
    20:00 +9°C° 0 mm 1 mps 716 mmHg 72%
    21:00 +9°C° 0 mm 1 mps 716 mmHg 74%
    22:00 +9°C° 0 mm 1 mps 716 mmHg 77%
    23:00 +9°C° 0 mm 1 mps 717 mmHg 79%
    Show more